Time,TemperatureF,DewpointF,PressureIn,WindDirection,WindDirectionDegrees,WindSpeedMPH,WindSpeedGustMPH,Humidity,HourlyPrecipIn,Conditions,Clouds,dailyrainin,SolarRadiationWatts/m^2,SoftwareType,DateUTC
2013-03-22 00:02:00,19.8,9.2,30.01,NNE,24,3.0,3.0,63,0.00,,,0.00,0,Wunderground v.1.15,2013-03-22 06:02:00,
2013-03-22 00:08:00,19.3,9.4,30.01,NNE,31,2.0,5.0,65,0.00,,,0.00,0,Wunderground v.1.15,2013-03-22 06:08:00,
2013-03-22 00:18:00,19.1,9.6,30.01,NE,34,2.0,4.0,66,0.00,,,0.00,0,Wunderground v.1.15,2013-03-22 06:18:00,
2013-03-22 00:24:00,19.0,9.5,30.02,NE,34,3.0,3.0,66,0.00,,,0.00,0,Wunderground v.1.15,2013-03-22 06:24:00,
2013-03-22 00:30:00,19.0,9.8,30.01,NE,34,1.0,1.0,67,0.00,,,0.00,0,Wunderground v.1.15,2013-03-22 06:30:00,
2013-03-22 00:38:00,18.9,10.1,30.01,NE,34,0.0,1.0,68,0.00,,,0.00,0,Wunderground v.1.15,2013-03-22 06:38:00,
2013-03-22 00:44:00,18.8,9.6,30.01,NE,34,0.0,0.0,67,0.00,,,0.00,0,Wunderground v.1.15,2013-03-22 06:44:00,
2013-03-22 00:50:00,18.5,9.7,30.01,NE,34,0.0,0.0,68,0.00,,,0.00,0,Wunderground v.1.15,2013-03-22 06:50:00,
2013-03-22 00:58:00,18.4,9.9,30.01,NE,34,0.0,4.0,69,0.00,,,0.00,0,Wunderground v.1.15,2013-03-22 06:58:00,
2013-03-22 01:04:00,18.3,9.8,30.01,ENE,74,2.0,3.0,69,0.00,,,0.00,0,Wunderground v.1.15,2013-03-22 07:04:00,
2013-03-22 01:10:00,18.3,10.5,30.01,NE,54,3.0,3.0,71,0.00,,,0.00,0,Wunderground v.1.15,2013-03-22 07:10:00,
2013-03-22 01:16:00,18.4,10.6,30.02,NE,55,3.0,5.0,71,0.00,,,0.00,0,Wunderground v.1.15,2013-03-22 07:16:00,
2013-03-22 01:22:00,18.5,10.7,30.02,NE,56,3.0,3.0,71,0.00,,,0.00,0,Wunderground v.1.15,2013-03-22 07:22:00,
2013-03-22 01:28:00,18.7,11.2,30.01,NE,56,3.0,5.0,72,0.00,,,0.00,0,Wunderground v.1.15,2013-03-22 07:28:00,
2013-03-22 01:34:00,18.8,11.3,30.01,ENE,63,3.0,6.0,72,0.00,,,0.00,0,Wunderground v.1.15,2013-03-22 07:34:00,
2013-03-22 01:40:00,19.0,11.5,30.01,ENE,69,4.0,4.0,72,0.00,,,0.00,0,Wunderground v.1.15,2013-03-22 07:40:00,
2013-03-22 01:46:00,19.0,11.5,30.01,ENE,71,4.0,4.0,72,0.00,,,0.00,0,Wunderground v.1.15,2013-03-22 07:46:00,
2013-03-22 01:52:00,19.1,11.9,30.01,ENE,69,4.0,4.0,73,0.00,,,0.00,0,Wunderground v.1.15,2013-03-22 07:52:00,
2013-03-22 01:58:00,19.2,12.0,30.01,ENE,67,4.0,4.0,73,0.00,,,0.00,0,Wunderground v.1.15,2013-03-22 07:58:00,
2013-03-22 02:04:00,19.3,12.1,30.01,ENE,65,3.0,4.0,73,0.00,,,0.00,0,Wunderground v.1.15,2013-03-22 08:04:00,
2013-03-22 02:10:00,19.2,11.6,30.01,ENE,65,3.0,4.0,72,0.00,,,0.00,0,Wunderground v.1.15,2013-03-22 08:10:00,
2013-03-22 02:16:00,19.2,11.6,30.01,NE,46,3.0,4.0,72,0.00,,,0.00,0,Wunderground v.1.15,2013-03-22 08:16:00,
2013-03-22 02:22:00,19.1,11.6,30.01,NE,46,3.0,3.0,72,0.00,,,0.00,0,Wunderground v.1.15,2013-03-22 08:22:00,
2013-03-22 02:28:00,19.0,11.5,30.01,NE,46,3.0,3.0,72,0.00,,,0.00,0,Wunderground v.1.15,2013-03-22 08:28:00,
2013-03-22 02:34:00,18.8,11.6,30.01,NE,46,1.0,2.0,73,0.00,,,0.00,0,Wunderground v.1.15,2013-03-22 08:34:00,
2013-03-22 02:44:00,18.4,11.2,30.01,NE,47,3.0,3.0,73,0.00,,,0.00,0,Wunderground v.1.15,2013-03-22 08:44:00,
2013-03-22 02:54:00,18.0,11.1,30.00,NE,47,3.0,3.0,74,0.00,,,0.00,0,Wunderground v.1.15,2013-03-22 08:54:00,
2013-03-22 03:00:00,17.7,10.8,30.01,NE,47,2.0,3.0,74,0.00,,,0.00,0,Wunderground v.1.15,2013-03-22 09:00:00,
2013-03-22 03:06:00,17.6,10.7,30.01,NE,47,2.0,3.0,74,0.00,,,0.00,0,Wunderground v.1.15,2013-03-22 09:06:00,
2013-03-22 03:14:00,17.4,10.8,30.01,NE,47,1.0,3.0,75,0.00,,,0.00,0,Wunderground v.1.15,2013-03-22 09:14:00,
2013-03-22 03:20:00,17.3,10.7,30.01,NE,47,2.0,3.0,75,0.00,,,0.00,0,Wunderground v.1.15,2013-03-22 09:20:00,
2013-03-22 03:26:00,17.4,10.8,30.01,NE,47,1.0,3.0,75,0.00,,,0.00,0,Wunderground v.1.15,2013-03-22 09:26:00,
2013-03-22 03:32:00,17.5,10.9,30.01,NNE,17,3.0,4.0,75,0.00,,,0.00,0,Wunderground v.1.15,2013-03-22 09:32:00,
2013-03-22 03:40:00,17.6,11.0,30.01,NE,39,3.0,3.0,75,0.00,,,0.00,0,Wunderground v.1.15,2013-03-22 09:40:00,
2013-03-22 03:46:00,17.6,11.0,30.01,NE,40,3.0,3.0,75,0.00,,,0.00,0,Wunderground v.1.15,2013-03-22 09:46:00,
2013-03-22 03:54:00,17.7,11.1,30.01,East,93,2.0,3.0,75,0.00,,,0.00,0,Wunderground v.1.15,2013-03-22 09:54:00,
2013-03-22 04:00:00,17.8,10.9,30.01,East,92,1.0,1.0,74,0.00,,,0.00,0,Wunderground v.1.15,2013-03-22 10:00:00,
2013-03-22 04:06:00,17.8,10.9,30.01,East,92,0.0,1.0,74,0.00,,,0.00,0,Wunderground v.1.15,2013-03-22 10:06:00,
2013-03-22 04:12:00,17.7,10.5,30.01,East,92,0.0,0.0,73,0.00,,,0.00,0,Wunderground v.1.15,2013-03-22 10:12:00,
2013-03-22 04:18:00,17.7,10.5,30.01,East,92,0.0,0.0,73,0.00,,,0.00,0,Wunderground v.1.15,2013-03-22 10:18:00,
2013-03-22 04:24:00,17.5,10.3,30.01,East,92,0.0,0.0,73,0.00,,,0.00,0,Wunderground v.1.15,2013-03-22 10:24:00,
2013-03-22 04:34:00,17.3,10.1,30.01,East,85,1.0,2.0,73,0.00,,,0.00,0,Wunderground v.1.15,2013-03-22 10:34:00,
2013-03-22 04:40:00,17.1,9.9,30.01,East,83,3.0,4.0,73,0.00,,,0.00,0,Wunderground v.1.15,2013-03-22 10:40:00,
2013-03-22 04:52:00,16.8,9.9,30.01,ENE,75,2.0,2.0,74,0.00,,,0.00,0,Wunderground v.1.15,2013-03-22 10:52:00,
2013-03-22 04:58:00,16.5,9.7,30.01,East,80,3.0,4.0,74,0.00,,,0.00,0,Wunderground v.1.15,2013-03-22 10:58:00,
2013-03-22 05:04:00,15.9,9.1,30.01,East,80,4.0,4.0,74,0.00,,,0.00,0,Wunderground v.1.15,2013-03-22 11:04:00,
2013-03-22 05:10:00,15.4,8.9,30.01,East,79,4.0,4.0,75,0.00,,,0.00,0,Wunderground v.1.15,2013-03-22 11:10:00,
2013-03-22 05:18:00,14.8,8.9,30.01,ENE,77,4.0,7.0,77,0.00,,,0.00,0,Wunderground v.1.15,2013-03-22 11:18:00,
2013-03-22 05:24:00,14.5,8.9,30.01,ENE,69,4.0,4.0,78,0.00,,,0.00,0,Wunderground v.1.15,2013-03-22 11:24:00,
2013-03-22 05:30:00,14.2,8.3,30.01,NE,56,5.0,5.0,77,0.00,,,0.00,0,Wunderground v.1.15,2013-03-22 11:30:00,
2013-03-22 05:36:00,14.0,8.4,30.01,ENE,76,4.0,5.0,78,0.00,,,0.00,0,Wunderground v.1.15,2013-03-22 11:36:00,
2013-03-22 05:44:00,14.0,9.0,30.02,ENE,76,2.0,4.0,80,0.00,,,0.00,0,Wunderground v.1.15,2013-03-22 11:44:00,
2013-03-22 05:52:00,14.3,9.3,30.02,NE,44,4.0,5.0,80,0.00,,,0.00,0,Wunderground v.1.15,2013-03-22 11:52:00,
2013-03-22 06:00:00,15.0,9.9,30.02,ENE,57,5.0,6.0,80,0.00,,,0.00,0,Wunderground v.1.15,2013-03-22 12:00:00,
2013-03-22 06:08:00,15.7,10.1,30.03,ENE,66,5.0,7.0,78,0.00,,,0.00,0,Wunderground v.1.15,2013-03-22 12:08:00,
2013-03-22 06:14:00,16.0,10.1,30.02,ENE,65,5.0,5.0,77,0.00,,,0.00,0,Wunderground v.1.15,2013-03-22 12:14:00,
2013-03-22 06:20:00,16.3,10.1,30.03,ENE,71,4.0,4.0,76,0.00,,,0.00,0,Wunderground v.1.15,2013-03-22 12:20:00,
2013-03-22 06:26:00,16.5,10.0,30.03,ENE,74,4.0,6.0,75,0.00,,,0.00,0,Wunderground v.1.15,2013-03-22 12:26:00,
2013-03-22 06:32:00,16.4,9.6,30.03,ENE,74,3.0,3.0,74,0.00,,,0.00,0,Wunderground v.1.15,2013-03-22 12:32:00,
2013-03-22 06:38:00,16.2,9.1,30.03,ENE,67,2.0,5.0,73,0.00,,,0.00,0,Wunderground v.1.15,2013-03-22 12:38:00,
2013-03-22 06:48:00,15.8,9.0,30.03,ENE,68,3.0,3.0,74,0.00,,,0.00,0,Wunderground v.1.15,2013-03-22 12:48:00,
2013-03-22 06:54:00,15.4,8.6,30.04,ENE,74,3.0,3.0,74,0.00,,,0.00,0,Wunderground v.1.15,2013-03-22 12:54:00,
2013-03-22 07:00:00,15.0,8.5,30.04,ENE,74,2.0,2.0,75,0.00,,,0.00,0,Wunderground v.1.15,2013-03-22 13:00:00,
2013-03-22 07:06:00,14.8,8.6,30.04,ENE,75,1.0,2.0,76,0.00,,,0.00,0,Wunderground v.1.15,2013-03-22 13:06:00,
2013-03-22 07:12:00,14.5,8.3,30.04,East,80,2.0,3.0,76,0.00,,,0.00,0,Wunderground v.1.15,2013-03-22 13:12:00,
2013-03-22 07:18:00,14.1,7.9,30.04,ENE,74,3.0,5.0,76,0.00,,,0.00,0,Wunderground v.1.15,2013-03-22 13:18:00,
2013-03-22 07:24:00,13.8,7.9,30.04,ENE,74,3.0,3.0,77,0.00,,,0.00,0,Wunderground v.1.15,2013-03-22 13:24:00,
2013-03-22 07:30:00,13.7,7.8,30.04,ENE,74,1.0,1.0,77,0.00,,,0.00,5,Wunderground v.1.15,2013-03-22 13:30:00,
2013-03-22 07:36:00,13.7,8.4,30.05,East,80,2.0,4.0,79,0.00,,,0.00,7,Wunderground v.1.15,2013-03-22 13:36:00,
2013-03-22 07:42:00,13.8,8.8,30.05,East,81,2.0,2.0,80,0.00,,,0.00,11,Wunderground v.1.15,2013-03-22 13:42:00,
2013-03-22 07:48:00,13.8,8.8,30.05,ENE,67,3.0,5.0,80,0.00,,,0.00,14,Wunderground v.1.15,2013-03-22 13:48:00,
2013-03-22 07:54:00,13.8,8.5,30.06,ENE,69,3.0,3.0,79,0.00,,,0.00,18,Wunderground v.1.15,2013-03-22 13:54:00,
2013-03-22 08:00:00,13.8,8.5,30.06,NE,42,2.0,2.0,79,0.00,,,0.00,21,Wunderground v.1.15,2013-03-22 14:00:00,
2013-03-22 08:06:00,13.9,8.9,30.06,NE,48,3.0,5.0,80,0.00,,,0.00,25,Wunderground v.1.15,2013-03-22 14:06:00,
2013-03-22 08:12:00,14.2,9.2,30.06,ENE,61,3.0,3.0,80,0.00,,,0.00,91,Wunderground v.1.15,2013-03-22 14:12:00,
2013-03-22 08:18:00,14.4,9.1,30.06,ENE,61,1.0,3.0,79,0.00,,,0.00,53,Wunderground v.1.15,2013-03-22 14:18:00,
2013-03-22 08:24:00,14.7,9.6,30.06,ENE,61,1.0,3.0,80,0.00,,,0.00,111,Wunderground v.1.15,2013-03-22 14:24:00,
2013-03-22 08:30:00,15.2,10.1,30.06,ENE,61,2.0,3.0,80,0.00,,,0.00,76,Wunderground v.1.15,2013-03-22 14:30:00,
2013-03-22 08:36:00,15.8,10.7,30.07,ENE,61,1.0,3.0,80,0.00,,,0.00,163,Wunderground v.1.15,2013-03-22 14:36:00,
2013-03-22 08:42:00,16.7,11.6,30.07,ENE,61,1.0,1.0,80,0.00,,,0.00,171,Wunderground v.1.15,2013-03-22 14:42:00,
2013-03-22 08:48:00,17.5,12.1,30.07,ENE,61,1.0,3.0,79,0.00,,,0.00,188,Wunderground v.1.15,2013-03-22 14:48:00,
2013-03-22 08:54:00,18.6,12.9,30.07,ENE,61,1.0,3.0,78,0.00,,,0.00,207,Wunderground v.1.15,2013-03-22 14:54:00,
2013-03-22 09:00:00,19.7,12.8,30.07,ENE,61,2.0,2.0,74,0.00,,,0.00,225,Wunderground v.1.15,2013-03-22 15:00:00,
2013-03-22 09:06:00,20.7,13.1,30.07,ENE,61,1.0,2.0,72,0.00,,,0.00,246,Wunderground v.1.15,2013-03-22 15:06:00,
2013-03-22 09:12:00,21.6,13.3,30.07,ENE,62,1.0,3.0,70,0.00,,,0.00,265,Wunderground v.1.15,2013-03-22 15:12:00,
2013-03-22 09:20:00,22.6,13.6,30.07,ENE,62,1.0,1.0,68,0.00,,,0.00,294,Wunderground v.1.15,2013-03-22 15:20:00,
2013-03-22 09:26:00,23.4,13.4,30.07,ENE,61,2.0,3.0,65,0.00,,,0.00,318,Wunderground v.1.15,2013-03-22 15:26:00,
2013-03-22 09:36:00,24.4,14.0,30.07,ENE,62,1.0,3.0,64,0.00,,,0.00,352,Wunderground v.1.15,2013-03-22 15:36:00,
2013-03-22 09:44:00,25.2,13.6,30.07,ENE,61,1.0,1.0,61,0.00,,,0.00,376,Wunderground v.1.15,2013-03-22 15:44:00,
2013-03-22 09:50:00,25.7,13.7,30.07,ENE,62,0.0,2.0,60,0.00,,,0.00,410,Wunderground v.1.15,2013-03-22 15:50:00,
2013-03-22 09:56:00,26.5,14.9,30.07,ENE,62,0.0,0.0,61,0.00,,,0.00,441,Wunderground v.1.15,2013-03-22 15:56:00,
2013-03-22 10:02:00,27.3,14.1,30.07,ENE,61,0.0,1.0,57,0.00,,,0.00,450,Wunderground v.1.15,2013-03-22 16:02:00,
2013-03-22 10:10:00,28.1,14.0,30.07,NW,323,1.0,1.0,55,0.00,,,0.00,425,Wunderground v.1.15,2013-03-22 16:10:00,
2013-03-22 10:16:00,28.7,14.6,30.07,NW,323,0.0,1.0,55,0.00,,,0.00,373,Wunderground v.1.15,2013-03-22 16:16:00,
2013-03-22 10:22:00,29.0,13.6,30.07,WNW,294,1.0,1.0,52,0.00,,,0.00,492,Wunderground v.1.15,2013-03-22 16:22:00,
2013-03-22 10:28:00,29.4,15.2,30.07,WSW,254,2.0,4.0,55,0.00,,,0.00,550,Wunderground v.1.15,2013-03-22 16:28:00,
2013-03-22 10:34:00,29.6,14.5,30.07,WSW,258,2.0,5.0,53,0.00,,,0.00,550,Wunderground v.1.15,2013-03-22 16:34:00,
2013-03-22 10:40:00,30.0,14.0,30.07,WSW,250,4.0,6.0,51,0.00,,,0.00,568,Wunderground v.1.15,2013-03-22 16:40:00,
2013-03-22 10:46:00,30.2,14.7,30.07,SW,236,5.0,7.0,52,0.00,,,0.00,598,Wunderground v.1.15,2013-03-22 16:46:00,
2013-03-22 10:56:00,30.5,14.5,30.07,SW,227,6.0,6.0,51,0.00,,,0.00,564,Wunderground v.1.15,2013-03-22 16:56:00,
2013-03-22 11:06:00,30.7,13.8,30.07,WSW,243,4.0,6.0,49,0.00,,,0.00,325,Wunderground v.1.15,2013-03-22 17:06:00,
2013-03-22 11:12:00,30.3,13.4,30.07,SW,221,4.0,6.0,49,0.00,,,0.00,671,Wunderground v.1.15,2013-03-22 17:12:00,
2013-03-22 11:18:00,30.5,13.1,30.07,West,280,4.0,6.0,48,0.00,,,0.00,698,Wunderground v.1.15,2013-03-22 17:18:00,
2013-03-22 11:24:00,30.8,14.8,30.07,WSW,248,5.0,9.0,51,0.00,,,0.00,766,Wunderground v.1.15,2013-03-22 17:24:00,
2013-03-22 11:30:00,31.3,14.3,30.07,SSW,198,6.0,6.0,49,0.00,,,0.00,729,Wunderground v.1.15,2013-03-22 17:30:00,
2013-03-22 11:36:00,31.3,13.4,30.07,WSW,242,5.0,7.0,47,0.00,,,0.00,394,Wunderground v.1.15,2013-03-22 17:36:00,
2013-03-22 11:42:00,31.2,13.3,30.08,WSW,245,5.0,5.0,47,0.00,,,0.00,244,Wunderground v.1.15,2013-03-22 17:42:00,
2013-03-22 11:48:00,30.5,13.6,30.07,WSW,257,5.0,5.0,49,0.00,,,0.00,392,Wunderground v.1.15,2013-03-22 17:48:00,
2013-03-22 11:54:00,30.4,14.4,30.07,SW,232,5.0,7.0,51,0.00,,,0.00,357,Wunderground v.1.15,2013-03-22 17:54:00,
2013-03-22 12:00:00,30.4,14.4,30.08,SW,234,6.0,9.0,51,0.00,,,0.00,301,Wunderground v.1.15,2013-03-22 18:00:00,
2013-03-22 12:06:00,30.2,14.2,30.08,WSW,242,7.0,11.0,51,0.00,,,0.00,436,Wunderground v.1.15,2013-03-22 18:06:00,
2013-03-22 12:12:00,30.3,15.2,30.07,SW,227,6.0,6.0,53,0.00,,,0.00,506,Wunderground v.1.15,2013-03-22 18:12:00,
2013-03-22 12:18:00,30.7,14.7,30.07,WSW,246,5.0,6.0,51,0.00,,,0.00,592,Wunderground v.1.15,2013-03-22 18:18:00,
2013-03-22 12:24:00,30.7,13.8,30.07,West,269,6.0,6.0,49,0.00,,,0.00,336,Wunderground v.1.15,2013-03-22 18:24:00,
2013-03-22 12:32:00,30.9,14.9,30.07,SSW,207,6.0,8.0,51,0.00,,,0.00,819,Wunderground v.1.15,2013-03-22 18:32:00,
2013-03-22 12:38:00,31.5,15.0,30.07,WNW,288,6.0,10.0,50,0.00,,,0.00,853,Wunderground v.1.15,2013-03-22 18:38:00,
2013-03-22 12:44:00,32.1,14.1,30.07,SW,231,5.0,7.0,47,0.00,,,0.00,849,Wunderground v.1.15,2013-03-22 18:44:00,
2013-03-22 12:50:00,32.3,13.8,30.07,West,265,4.0,8.0,46,0.00,,,0.00,394,Wunderground v.1.15,2013-03-22 18:50:00,
2013-03-22 12:56:00,31.8,15.3,30.07,WSW,240,7.0,10.0,50,0.00,,,0.00,195,Wunderground v.1.15,2013-03-22 18:56:00,
2013-03-22 13:02:00,31.1,14.6,30.07,WSW,258,6.0,7.0,50,0.00,,,0.00,148,Wunderground v.1.15,2013-03-22 19:02:00,
2013-03-22 13:08:00,30.4,14.0,30.07,WSW,256,5.0,7.0,50,0.00,,,0.00,244,Wunderground v.1.15,2013-03-22 19:08:00,
2013-03-22 13:14:00,30.0,14.0,30.07,WSW,248,5.0,5.0,51,0.00,,,0.00,322,Wunderground v.1.15,2013-03-22 19:14:00,
2013-03-22 13:20:00,30.0,13.6,30.07,WSW,246,4.0,4.0,50,0.00,,,0.00,406,Wunderground v.1.15,2013-03-22 19:20:00,
2013-03-22 13:26:00,30.1,13.7,30.07,West,277,4.0,5.0,50,0.00,,,0.00,596,Wunderground v.1.15,2013-03-22 19:26:00,
2013-03-22 13:36:00,31.1,13.7,30.07,WNW,286,5.0,10.0,48,0.00,,,0.00,552,Wunderground v.1.15,2013-03-22 19:36:00,
2013-03-22 13:42:00,31.6,12.7,30.07,SSW,198,5.0,5.0,45,0.00,,,0.00,410,Wunderground v.1.15,2013-03-22 19:42:00,
2013-03-22 13:48:00,32.1,15.1,30.07,West,267,5.0,5.0,49,0.00,,,0.00,410,Wunderground v.1.15,2013-03-22 19:48:00,
2013-03-22 13:54:00,32.9,15.3,30.07,SW,236,5.0,10.0,48,0.00,,,0.00,744,Wunderground v.1.15,2013-03-22 19:54:00,
2013-03-22 14:00:00,33.7,16.1,30.07,SW,220,8.0,11.0,48,0.00,,,0.00,867,Wunderground v.1.15,2013-03-22 20:00:00,
2013-03-22 14:06:00,33.5,15.9,30.07,WSW,248,12.0,12.0,48,0.00,,,0.00,459,Wunderground v.1.15,2013-03-22 20:06:00,
2013-03-22 14:16:00,32.2,14.2,30.07,West,270,8.0,11.0,47,0.00,,,0.00,475,Wunderground v.1.15,2013-03-22 20:16:00,
2013-03-22 14:24:00,31.8,12.8,30.06,WNW,299,5.0,6.0,45,0.00,,,0.00,564,Wunderground v.1.15,2013-03-22 20:24:00,
2013-03-22 14:30:00,32.1,11.6,30.06,WSW,256,5.0,5.0,42,0.00,,,0.00,323,Wunderground v.1.15,2013-03-22 20:30:00,
2013-03-22 14:36:00,32.1,11.6,30.07,WSW,238,5.0,6.0,42,0.00,,,0.00,325,Wunderground v.1.15,2013-03-22 20:36:00,
2013-03-22 14:42:00,32.1,11.6,30.06,West,261,3.0,4.0,42,0.00,,,0.00,285,Wunderground v.1.15,2013-03-22 20:42:00,
2013-03-22 14:48:00,32.0,10.9,30.07,WSW,242,3.0,4.0,41,0.00,,,0.00,220,Wunderground v.1.15,2013-03-22 20:48:00,
2013-03-22 14:54:00,32.0,10.4,30.07,WSW,242,2.0,3.0,40,0.00,,,0.00,199,Wunderground v.1.15,2013-03-22 20:54:00,
2013-03-22 15:00:00,31.6,13.2,30.07,SW,215,5.0,13.0,46,0.00,,,0.00,127,Wunderground v.1.15,2013-03-22 21:00:00,
2013-03-22 15:06:00,30.2,16.8,30.08,SSW,209,12.0,14.0,57,0.00,,,0.00,51,Wunderground v.1.15,2013-03-22 21:06:00,
2013-03-22 15:12:00,28.3,18.7,30.09,SSW,213,12.0,13.0,67,0.00,,,0.00,60,Wunderground v.1.15,2013-03-22 21:12:00,
2013-03-22 15:18:00,27.0,19.5,30.09,SW,223,9.0,13.0,73,0.00,,,0.00,69,Wunderground v.1.15,2013-03-22 21:18:00,
2013-03-22 15:24:00,26.1,19.3,30.09,SW,218,6.0,8.0,75,0.00,,,0.00,79,Wunderground v.1.15,2013-03-22 21:24:00,
2013-03-22 15:30:00,25.3,19.1,30.08,WSW,243,1.0,1.0,77,0.00,,,0.00,114,Wunderground v.1.15,2013-03-22 21:30:00,
2013-03-22 15:36:00,24.8,19.2,30.08,WSW,246,0.0,2.0,79,0.00,,,0.00,179,Wunderground v.1.15,2013-03-22 21:36:00,
2013-03-22 15:42:00,24.8,19.5,30.08,WSW,246,1.0,5.0,80,0.00,,,0.00,162,Wunderground v.1.15,2013-03-22 21:42:00,
2013-03-22 15:48:00,24.9,19.6,30.09,WSW,246,2.0,5.0,80,0.00,,,0.00,116,Wunderground v.1.15,2013-03-22 21:48:00,
2013-03-22 15:56:00,25.0,19.4,30.08,WSW,246,1.0,2.0,79,0.00,,,0.00,123,Wunderground v.1.15,2013-03-22 21:56:00,
2013-03-22 16:04:00,25.1,18.9,30.09,WSW,246,0.0,1.0,77,0.00,,,0.00,206,Wunderground v.1.15,2013-03-22 22:04:00,
2013-03-22 16:10:00,25.4,19.2,30.09,WSW,246,0.0,5.0,77,0.00,,,0.00,234,Wunderground v.1.15,2013-03-22 22:10:00,
2013-03-22 16:16:00,25.8,20.2,30.10,WSW,246,5.0,14.0,79,0.00,,,0.00,186,Wunderground v.1.15,2013-03-22 22:16:00,
2013-03-22 16:24:00,25.4,20.4,30.11,West,265,12.0,12.0,81,0.00,,,0.00,230,Wunderground v.1.15,2013-03-22 22:24:00,
2013-03-22 16:30:00,24.9,19.9,30.11,West,274,9.0,10.0,81,0.00,,,0.00,220,Wunderground v.1.15,2013-03-22 22:30:00,
2013-03-22 16:36:00,24.7,19.1,30.11,West,275,8.0,10.0,79,0.00,,,0.00,163,Wunderground v.1.15,2013-03-22 22:36:00,
2013-03-22 16:42:00,24.7,18.5,30.11,WSW,254,7.0,8.0,77,0.00,,,0.00,137,Wunderground v.1.15,2013-03-22 22:42:00,
2013-03-22 16:48:00,24.9,18.7,30.12,West,270,6.0,8.0,77,0.00,,,0.00,113,Wunderground v.1.15,2013-03-22 22:48:00,
2013-03-22 16:56:00,25.0,17.9,30.12,WSW,238,6.0,12.0,74,0.00,,,0.00,44,Wunderground v.1.15,2013-03-22 22:56:00,
2013-03-22 17:02:00,24.9,18.7,30.13,WSW,257,7.0,7.0,77,0.00,,,0.00,51,Wunderground v.1.15,2013-03-22 23:02:00,
2013-03-22 17:08:00,24.6,18.4,30.13,West,270,4.0,7.0,77,0.00,,,0.00,86,Wunderground v.1.15,2013-03-22 23:08:00,
2013-03-22 17:14:00,24.5,18.3,30.12,West,280,4.0,6.0,77,0.00,,,0.00,135,Wunderground v.1.15,2013-03-22 23:14:00,
2013-03-22 17:20:00,24.4,17.9,30.13,West,275,5.0,5.0,76,0.00,,,0.00,178,Wunderground v.1.15,2013-03-22 23:20:00,
2013-03-22 17:26:00,24.6,18.1,30.13,West,274,3.0,5.0,76,0.00,,,0.00,197,Wunderground v.1.15,2013-03-22 23:26:00,
2013-03-22 17:32:00,24.9,18.1,30.13,West,275,2.0,3.0,75,0.00,,,0.00,193,Wunderground v.1.15,2013-03-22 23:32:00,
2013-03-22 17:38:00,25.4,17.3,30.13,WNW,283,3.0,5.0,71,0.00,,,0.00,176,Wunderground v.1.15,2013-03-22 23:38:00,
2013-03-22 17:44:00,25.8,17.4,30.13,West,275,4.0,4.0,70,0.00,,,0.00,163,Wunderground v.1.15,2013-03-22 23:44:00,
2013-03-22 17:50:00,26.1,18.3,30.14,WSW,247,5.0,6.0,72,0.00,,,0.00,160,Wunderground v.1.15,2013-03-22 23:50:00,
2013-03-22 17:56:00,26.2,17.4,30.14,West,265,5.0,6.0,69,0.00,,,0.00,146,Wunderground v.1.15,2013-03-22 23:56:00,
2013-03-22 18:02:00,26.2,17.1,30.14,West,267,4.0,5.0,68,0.00,,,0.00,135,Wunderground v.1.15,2013-03-23 00:02:00,
2013-03-22 18:08:00,26.3,17.8,30.14,WSW,249,3.0,7.0,70,0.00,,,0.00,134,Wunderground v.1.15,2013-03-23 00:08:00,
2013-03-22 18:14:00,26.5,18.0,30.13,WSW,249,4.0,6.0,70,0.00,,,0.00,132,Wunderground v.1.15,2013-03-23 00:14:00,
2013-03-22 18:20:00,26.5,17.7,30.14,WSW,242,4.0,4.0,69,0.00,,,0.00,120,Wunderground v.1.15,2013-03-23 00:20:00,
2013-03-22 18:26:00,26.5,17.7,30.14,WSW,240,6.0,6.0,69,0.00,,,0.00,102,Wunderground v.1.15,2013-03-23 00:26:00,
2013-03-22 18:34:00,26.3,17.2,30.14,SW,224,7.0,7.0,68,0.00,,,0.00,83,Wunderground v.1.15,2013-03-23 00:34:00,
2013-03-22 18:42:00,26.1,17.0,30.14,SW,232,5.0,6.0,68,0.00,,,0.00,69,Wunderground v.1.15,2013-03-23 00:42:00,
2013-03-22 18:48:00,26.0,17.6,30.14,SW,217,6.0,10.0,70,0.00,,,0.00,47,Wunderground v.1.15,2013-03-23 00:48:00,
2013-03-22 18:54:00,25.8,17.7,30.15,SW,225,9.0,15.0,71,0.00,,,0.00,30,Wunderground v.1.15,2013-03-23 00:54:00,
2013-03-22 19:04:00,25.0,18.2,30.16,SW,228,14.0,14.0,75,0.00,,,0.00,11,Wunderground v.1.15,2013-03-23 01:04:00,
2013-03-22 19:10:00,24.3,18.7,30.17,SW,221,15.0,15.0,79,0.00,,,0.00,5,Wunderground v.1.15,2013-03-23 01:10:00,
2013-03-22 19:16:00,23.6,18.6,30.17,WSW,252,12.0,15.0,81,0.00,,,0.00,0,Wunderground v.1.15,2013-03-23 01:16:00,
2013-03-22 19:22:00,23.1,18.7,30.17,SW,236,7.0,9.0,83,0.00,,,0.00,7,Wunderground v.1.15,2013-03-23 01:22:00,
2013-03-22 19:28:00,22.9,18.8,30.18,SW,228,5.0,9.0,84,0.00,,,0.00,7,Wunderground v.1.15,2013-03-23 01:28:00,
2013-03-22 19:34:00,22.6,18.8,30.18,SW,234,5.0,7.0,85,0.00,,,0.00,5,Wunderground v.1.15,2013-03-23 01:34:00,
2013-03-22 19:40:00,22.4,18.6,30.18,WSW,244,4.0,4.0,85,0.00,,,0.00,5,Wunderground v.1.15,2013-03-23 01:40:00,
2013-03-22 19:46:00,22.2,18.4,30.18,SW,216,5.0,7.0,85,0.00,,,0.00,0,Wunderground v.1.15,2013-03-23 01:46:00,
2013-03-22 19:52:00,21.9,17.8,30.19,SW,229,6.0,6.0,84,0.00,,,0.00,0,Wunderground v.1.15,2013-03-23 01:52:00,
2013-03-22 20:00:00,21.6,17.5,30.19,SW,229,4.0,4.0,84,0.00,,,0.00,0,Wunderground v.1.15,2013-03-23 02:00:00,
2013-03-22 20:06:00,21.4,17.0,30.19,SW,229,2.0,4.0,83,0.00,,,0.00,0,Wunderground v.1.15,2013-03-23 02:06:00,
2013-03-22 20:12:00,21.2,16.8,30.19,WSW,244,1.0,4.0,83,0.00,,,0.00,0,Wunderground v.1.15,2013-03-23 02:12:00,
2013-03-22 20:18:00,21.1,16.7,30.20,WSW,244,1.0,4.0,83,0.00,,,0.00,0,Wunderground v.1.15,2013-03-23 02:18:00,
2013-03-22 20:26:00,20.9,16.5,30.20,WSW,244,0.0,1.0,83,0.00,,,0.00,0,Wunderground v.1.15,2013-03-23 02:26:00,
2013-03-22 20:32:00,20.7,16.4,30.21,WSW,244,0.0,0.0,83,0.00,,,0.00,0,Wunderground v.1.15,2013-03-23 02:32:00,
2013-03-22 20:38:00,20.6,16.3,30.21,WSW,257,1.0,5.0,83,0.00,,,0.00,0,Wunderground v.1.15,2013-03-23 02:38:00,
2013-03-22 20:46:00,20.6,16.5,30.22,WSW,250,4.0,6.0,84,0.00,,,0.00,0,Wunderground v.1.15,2013-03-23 02:46:00,
2013-03-22 20:52:00,20.7,16.6,30.22,WSW,239,4.0,8.0,84,0.00,,,0.00,0,Wunderground v.1.15,2013-03-23 02:52:00,
2013-03-22 20:58:00,20.7,16.6,30.22,SW,226,5.0,8.0,84,0.00,,,0.00,0,Wunderground v.1.15,2013-03-23 02:58:00,
2013-03-22 21:04:00,20.8,16.7,30.22,WSW,252,5.0,6.0,84,0.00,,,0.00,0,Wunderground v.1.15,2013-03-23 03:04:00,
2013-03-22 21:10:00,20.8,16.5,30.23,WSW,245,5.0,6.0,83,0.00,,,0.00,0,Wunderground v.1.15,2013-03-23 03:10:00,
2013-03-22 21:16:00,20.8,16.5,30.23,SW,231,6.0,10.0,83,0.00,,,0.00,0,Wunderground v.1.15,2013-03-23 03:16:00,
2013-03-22 21:22:00,20.8,16.5,30.24,SW,228,6.0,7.0,83,0.00,,,0.00,0,Wunderground v.1.15,2013-03-23 03:22:00,
2013-03-22 21:28:00,20.7,16.1,30.24,WSW,237,5.0,7.0,82,0.00,,,0.00,0,Wunderground v.1.15,2013-03-23 03:28:00,
2013-03-22 21:34:00,20.6,16.0,30.24,WSW,238,5.0,7.0,82,0.00,,,0.00,0,Wunderground v.1.15,2013-03-23 03:34:00,
2013-03-22 21:40:00,20.5,15.9,30.24,SW,214,6.0,6.0,82,0.00,,,0.00,0,Wunderground v.1.15,2013-03-23 03:40:00,
2013-03-22 21:46:00,20.4,15.5,30.24,SW,229,6.0,9.0,81,0.00,,,0.00,0,Wunderground v.1.15,2013-03-23 03:46:00,
2013-03-22 21:54:00,20.2,14.7,30.24,SW,231,6.0,8.0,79,0.00,,,0.00,0,Wunderground v.1.15,2013-03-23 03:54:00,
2013-03-22 22:00:00,20.0,14.2,30.24,WSW,248,6.0,7.0,78,0.00,,,0.00,0,Wunderground v.1.15,2013-03-23 04:00:00,
2013-03-22 22:04:00,19.9,14.1,30.25,SW,228,6.0,10.0,78,0.00,,,0.00,0,Wunderground v.1.15,2013-03-23 04:04:00,
2013-03-22 22:06:00,19.9,14.1,30.25,WSW,242,6.0,10.0,78,0.00,,,0.00,0,Wunderground v.1.15,2013-03-23 04:06:00,
2013-03-22 22:12:00,19.7,14.0,30.25,SW,220,6.0,6.0,78,0.00,,,0.00,0,Wunderground v.1.15,2013-03-23 04:12:00,
2013-03-22 22:18:00,19.5,13.8,30.25,SW,233,6.0,7.0,78,0.00,,,0.00,0,Wunderground v.1.15,2013-03-23 04:18:00,
2013-03-22 22:24:00,19.3,13.6,30.25,SW,223,5.0,5.0,78,0.00,,,0.00,0,Wunderground v.1.15,2013-03-23 04:24:00,
2013-03-22 22:30:00,19.1,13.7,30.25,SW,224,5.0,5.0,79,0.00,,,0.00,0,Wunderground v.1.15,2013-03-23 04:30:00,
2013-03-22 22:38:00,18.8,13.4,30.25,SW,234,4.0,5.0,79,0.00,,,0.00,0,Wunderground v.1.15,2013-03-23 04:38:00,
2013-03-22 22:44:00,18.6,13.2,30.26,SW,227,5.0,5.0,79,0.00,,,0.00,0,Wunderground v.1.15,2013-03-23 04:44:00,
2013-03-22 22:52:00,18.4,13.0,30.26,WSW,239,5.0,5.0,79,0.00,,,0.00,0,Wunderground v.1.15,2013-03-23 04:52:00,
2013-03-22 22:58:00,18.2,13.1,30.26,SW,229,4.0,5.0,80,0.00,,,0.00,0,Wunderground v.1.15,2013-03-23 04:58:00,
2013-03-22 23:04:00,18.1,13.0,30.26,SW,229,4.0,5.0,80,0.00,,,0.00,0,Wunderground v.1.15,2013-03-23 05:04:00,
2013-03-22 23:10:00,17.9,12.8,30.26,WSW,238,3.0,3.0,80,0.00,,,0.00,0,Wunderground v.1.15,2013-03-23 05:10:00,
2013-03-22 23:16:00,17.8,12.7,30.27,SW,234,3.0,4.0,80,0.00,,,0.00,0,Wunderground v.1.15,2013-03-23 05:16:00,
2013-03-22 23:22:00,17.8,13.0,30.27,SW,231,4.0,4.0,81,0.00,,,0.00,0,Wunderground v.1.15,2013-03-23 05:22:00,
2013-03-22 23:28:00,17.8,13.0,30.27,SW,225,4.0,6.0,81,0.00,,,0.00,0,Wunderground v.1.15,2013-03-23 05:28:00,
2013-03-22 23:36:00,17.8,13.0,30.28,SW,227,4.0,4.0,81,0.00,,,0.00,0,Wunderground v.1.15,2013-03-23 05:36:00,
2013-03-22 23:42:00,18.0,13.2,30.28,SW,232,4.0,6.0,81,0.00,,,0.00,0,Wunderground v.1.15,2013-03-23 05:42:00,
2013-03-22 23:48:00,18.1,13.0,30.28,SW,220,5.0,6.0,80,0.00,,,0.00,0,Wunderground v.1.15,2013-03-23 05:48:00,
2013-03-22 23:54:00,18.2,13.1,30.28,SW,224,6.0,6.0,80,0.00,,,0.00,0,Wunderground v.1.15,2013-03-23 05:54:00,